Location: Frankfurt+am+Main
(50.1100°N, 8.4815°E)
Time: 17:58:30
(UTC+02:00)

ISS - Pass Details

Date: 04 January 2018
Orbit: 401 x 409 km, 51.6° (Epoch: 19 August)

Event Time Altitude Azimuth Distance (km) Brightness Sun altitude
Exits shadow 06:57:46 24° 282° (WNW) 923 -2.6 -13.1°
Maximum altitude 06:59:38 65° 359° (N) 471 -3.7 -12.9°
Drops below altitude 10° 07:03:02 10° 82° (E) 1,519 0.1 -12.3°
Sets 07:05:09 0° 85° (E) 2,387 1.4 -12.0°
